Simultaneous Nadir Overpasses (SNOs) Predictions

Prediction of SNOs between AQUA and GOES-15 Satellite Orbit:

Table of predicted SNOs for the next 14.0 days since TLE Epoch: 8/2/2019
Index Date Time (AQUA) AQUA Lat,Lon GOES-15 Lat,Lon Distance(km) Time Diff (sec)
1 08/04/2019 10:07:05 -0.35,-127.95 -0.28,-128.33 43.08 80
2 08/06/2019 09:54:54 -1.02,-125.00 -0.28,-128.36 383.04 80
3 08/06/2019 22:16:17 -0.12,-130.18 0.29,-128.34 209.47 80
4 08/08/2019 22:04:06 0.55,-127.23 0.30,-128.37 129.92 80
5 08/09/2019 10:25:22 0.55,-132.39 -0.31,-128.41 453.14 80
6 08/10/2019 21:51:54 1.16,-124.27 0.30,-128.40 468.79 80
7 08/11/2019 10:13:11 -0.13,-129.44 -0.31,-128.43 114.45 80
8 08/13/2019 10:00:59 -0.74,-126.48 -0.32,-128.45 223.97 80
9 08/13/2019 22:22:23 -0.33,-131.68 0.33,-128.43 369.20 80
10 08/15/2019 22:10:11 0.28,-128.72 0.33,-128.45 30.97 80




NCC Satellite Simultaneous Nadir Overpasses (SNOs) Prediction Service
